Terminal Aerodrome Forecast
Issued by NWS

Home | Current Version | Previous Version | Text Only | Print | Product List | Glossary On
Versions: 1 2 3 4 5 6 7 8 9 10 11 12 13 14 15 16 17 18 19 20 21 22 23 24 25 26 27 28 29 30 31 32 33 34 35 36 37 38 39 40
000
FTUS45 KBOU 062125 AAC
TAFBJC
TAF AMD
KBJC 062125Z 0621/0718 27016G24KT P6SM FEW090 BKN200
      TEMPO 0623/0703 27022G34KT
     FM070500 30012KT P6SM FEW130 BKN220
     FM071500 VRB06KT P6SM FEW140 SCT220=

USA.gov is the U.S. government's official web portal to all federal, state and local government web resources and services.